Location: *
(49.5667°N, 1.3667°W)
Time: 22:14:04
(UTC+00:00)

Spot 2 Rocket - Pass Details

Date: 20 September 2019
Orbit: 757 x 772 km, 98.6° (Epoch: 16 October)

Event Time Altitude Azimuth Distance (km) Brightness Sun altitude
Exits shadow 20:48:59 75° 165° (SSE) 791 3.3 -25.2°
Maximum altitude 20:49:27 90° 232° (SW) 766 3.4 -25.3°
Drops below altitude 10° 20:54:32 10° 345° (NNW) 2,299 6.6 -25.9°
Sets 20:56:50 0° 346° (NNW) 3,229 7.5 -26.2°
